This is the latest recevied weather packets stored in our database for station/object N0NB. If no packets are shown the sender has not sent any weather packets the latest 10 day(s).
| Time | Temp. | Humidity | Pressure | Rain* | Wind** | Luminosity | Snow |
|---|---|---|---|---|---|---|---|
| 1778136016 | 7.78° C | 76% | 1015.5 hPa | 0 mm | - | 0 W/m² | - |
| 1778135416 | 7.78° C | 76% | 1015.6 hPa | 0 mm | - | 0 W/m² | - |
| 1778134816 | 7.78° C | 75% | 1015.6 hPa | 0 mm | - | 0 W/m² | - |
| 1778134216 | 7.22° C | 75% | 1015.6 hPa | 0 mm | - | 0 W/m² | - |
| 1778133616 | 7.78° C | 73% | 1015.8 hPa | 0 mm | - | 0 W/m² | - |
| 1778133016 | 7.78° C | 73% | 1015.8 hPa | 0 mm | - | 0 W/m² | - |
| 1778132416 | 7.78° C | 72% | 1015.9 hPa | 0 mm | - | 0 W/m² | - |
| 1778131816 | 7.78° C | 71% | 1016 hPa | 0 mm | - | 0 W/m² | - |
| 1778131216 | 7.78° C | 71% | 1015.9 hPa | 0 mm | - | 0 W/m² | - |
| 1778130616 | 7.78° C | 70% | 1015.9 hPa | 0 mm | - | 0 W/m² | - |
| 1778130016 | 7.78° C | 69% | 1015.8 hPa | 0 mm | - | 0 W/m² | - |
| 1778129415 | 8.33° C | 68% | 1016 hPa | 0 mm | - | 0 W/m² | - |
| 1778128816 | 7.78° C | 67% | 1015.9 hPa | 0 mm | - | 0 W/m² | - |
| 1778128215 | 8.33° C | 66% | 1016 hPa | 0 mm | - | 0 W/m² | - |
| 1778127616 | 8.89° C | 64% | 1016 hPa | 0 mm | - | 0 W/m² | - |
| 1778127015 | 8.89° C | 63% | 1016 hPa | 0 mm | - | 0 W/m² | - |
| 1778126415 | 9.44° C | 61% | 1016 hPa | 0 mm | - | 0 W/m² | - |
| 1778125815 | 9.44° C | 59% | 1016 hPa | 0 mm | - | 0 W/m² | - |
| 1778125215 | 10° C | 58% | 1015.9 hPa | 0 mm | - | 0 W/m² | - |
| 1778124615 | 10° C | 55% | 1016 hPa | 0 mm | - | 0 W/m² | - |
| 1778124017 | 10° C | 53% | 1015.9 hPa | 0 mm | - | 0 W/m² | - |
| 1778123417 | 10.56° C | 52% | 1015.9 hPa | 0 mm | - | 0 W/m² | - |
| 1778122817 | 10.56° C | 51% | 1015.9 hPa | 0 mm | - | 0 W/m² | - |
| 1778122217 | 10° C | 52% | 1015.9 hPa | 0 mm | - | 0 W/m² | - |
| 1778121617 | 10° C | 52% | 1015.7 hPa | 0 mm | - | 0 W/m² | - |
* Rain latest hour (hover to see other rain measurements)
** Current wind speed in m/s (hover to see current wind gust speed)